Regional Weather Roundup
Issued by NWS Sioux Falls, SD

Home | Current Version | Previous Version | Text Only | Print | Product List | Glossary On
Versions: 1 2 3 4 5 6 7 8 9 10 11 12 13 14 15 16 17 18 19 20 21 22 23 24 25 26 27 28 29 30 31 32 33 34 35 36 37 38 39 40 41 42 43 44 45 46 47 48 49 50
000
ASUS43 KFSD 262202
RWRFSD

WEATHER ROUNDUP FOR SE SOUTH DAKOTA/SW MINNESOTA/NW IOWA
NATIONAL WEATHER SERVICE SIOUX FALLS SD
500 PM CDT MON SEP 26 2016

NOTE: "FAIR" INDICATES FEW OR NO CLOUDS BELOW 12,000 FEET WITH NO
SIGNIFICANT WEATHER AND OR OBSTRUCTIONS TO VISIBILITY.


SDZ038>040-050-052>070-262300-
SOUTHEAST SOUTH DAKOTA

CITY           SKY/WX    TMP DP  RH WIND       PRES   REMARKS
CHAMBERLAIN    SUNNY     74  41  29 NW17G24   30.12S
HURON          SUNNY     73  31  21 NW20G26   30.05F
MADISON        FAIR      66  28  24 NW23G33   30.06F
MITCHELL       SUNNY     74  34  23 NW16G26   30.08F
SIOUX FALLS    MOSUNNY   72  36  26 NW17G29   30.04F
WINNER         FAIR      76  38  25 NW17G24   30.14F
YANKTON        SUNNY     72  39  30 W16G25    30.07F
$$

MNZ071-072-080-081-089-090-097-098-262300-
SOUTHWEST MINNESOTA

CITY           SKY/WX    TMP DP  RH WIND       PRES   REMARKS
FAIRMONT       SUNNY     67  31  26 NW22G29   29.99F
JACKSON        SUNNY     68  21  17 W18G31    30.01F
LUVERNE        SUNNY     70  30  23 W18G28    30.04F
MARSHALL       SUNNY     68  33  27 NW22G31   29.99F
MONTEVIDEO     SUNNY     70  34  26 NW24G31   29.98F
PIPESTONE      SUNNY     70  18  13 NW15G25   30.04S
REDWOOD FALLS  SUNNY     68  31  25 W18G32    29.96F
TRACY          SUNNY     69  33  26 NW13G25   30.00F
WINDOM         SUNNY     68  28  22 W21G32    30.00F
WORTHINGTON    SUNNY     67  32  27 W20G32    30.03F
$$

IAZ001>003-012>014-020>022-031-032-NEZ013-014-SDZ071-262300-
NORTHWEST IOWA

CITY           SKY/WX    TMP DP  RH WIND       PRES   REMARKS
CHEROKEE       SUNNY     70  36  28 NW15G29   30.06S
DENISON        SUNNY     72  43  35 NW20      30.06F
ESTHERVILLE    SUNNY     68  28  22 W21G30    30.00F
LE MARS        SUNNY     72  39  30 NW14G24   30.07F
ORANGE CITY    SUNNY     70  41  35 NW15G25   30.06F
SHELDON        SUNNY     70  36  28 NW17G29   30.04S
SIOUX CITY     MOSUNNY   74  42  31 NW15G25   30.06F
SPENCER        SUNNY     70  35  27 W23G43    30.03F
STORM LAKE     SUNNY     70  36  28 W18G29    30.06F
$$

ABBREVIATIONS USED IN REMARKS
   TC - TEMPERATURE IN CELSIUS
  WCI - WIND CHILL INDEX
   HX - HEAT INDEX
  VSB - VISIBILITY




USA.gov is the U.S. government's official web portal to all federal, state and local government web resources and services.